BKP101 VTBS-VTSM

Flight info

Callsign BKP101
Flight time 0h 51m
Altitude 33000
Route KASNI1E KASNI M757 MABKO W33 UPNEP
Aircraft A319/M-SDE3FGHIRWY/LB1

Departure

Time 2026-05-07 21:25
Airport Suvarnabhumi Airport (VTBS)

Arrival

Time 2026-05-07 22:16
Airport Samui International Airport (VTSM)
Time Latitude Longitude Altitude Speed Heading
2026-05-07 20:36 13.69327 100.75554 13 ft 0 kts 284°
2026-05-07 21:11 13.69322 100.75576 17 ft 4 kts 282°
2026-05-07 21:12 13.69317 100.75603 16 ft 4 kts 277°
2026-05-07 21:12 13.69315 100.75631 15 ft 4 kts 261°
2026-05-07 21:12 13.69324 100.75652 16 ft 4 kts 204°
2026-05-07 21:12 13.69328 100.75654 16 ft 0 kts 194°
2026-05-07 21:17 13.69314 100.75650 15 ft 4 kts 194°
2026-05-07 21:17 13.69272 100.75639 13 ft 8 kts 194°
2026-05-07 21:17 13.69200 100.75622 14 ft 13 kts 180°
2026-05-07 21:18 13.69147 100.75699 15 ft 16 kts 104°
2026-05-07 21:18 13.69116 100.75827 13 ft 15 kts 103°
2026-05-07 21:18 13.69111 100.75846 13 ft 4 kts 107°
2026-05-07 21:18 13.69098 100.75876 14 ft 5 kts 144°
2026-05-07 21:19 13.69057 100.75883 13 ft 7 kts 190°
2026-05-07 21:19 13.69004 100.75869 13 ft 9 kts 194°
2026-05-07 21:19 13.68935 100.75850 13 ft 11 kts 194°
2026-05-07 21:19 13.68852 100.75829 13 ft 13 kts 194°
2026-05-07 21:20 13.68755 100.75803 14 ft 15 kts 194°
2026-05-07 21:20 13.68644 100.75774 14 ft 17 kts 194°
2026-05-07 21:20 13.68519 100.75742 14 ft 20 kts 194°
2026-05-07 21:20 13.68380 100.75705 13 ft 22 kts 194°
2026-05-07 21:21 13.68227 100.75664 13 ft 24 kts 194°
2026-05-07 21:21 13.68058 100.75620 13 ft 26 kts 194°
2026-05-07 21:21 13.67877 100.75573 13 ft 28 kts 194°
2026-05-07 21:21 13.67682 100.75522 13 ft 30 kts 194°
2026-05-07 21:22 13.67475 100.75467 13 ft 32 kts 194°
2026-05-07 21:22 13.67295 100.75419 13 ft 24 kts 194°
2026-05-07 21:22 13.67125 100.75375 13 ft 26 kts 194°
2026-05-07 21:22 13.66941 100.75327 12 ft 28 kts 194°
2026-05-07 21:23 13.66752 100.75276 13 ft 19 kts 194°
2026-05-07 21:23 13.66675 100.75261 13 ft 11 kts 174°
2026-05-07 21:23 13.66651 100.75325 13 ft 11 kts 57°
2026-05-07 21:23 13.66708 100.75390 13 ft 13 kts 42°
2026-05-07 21:24 13.66786 100.75458 13 ft 16 kts 38°
2026-05-07 21:24 13.66892 100.75505 13 ft 22 kts 16°
2026-05-07 21:24 13.67222 100.75593 13 ft 77 kts 14°
2026-05-07 21:24 13.67913 100.75775 11 ft 128 kts 14°
2026-05-07 21:25 13.68926 100.76048 126 ft 162 kts 16°
2026-05-07 21:25 13.69992 100.76375 703 ft 163 kts 28°
2026-05-07 21:25 13.70708 100.77266 1207 ft 166 kts 72°
2026-05-07 21:25 13.70765 100.78449 1766 ft 169 kts 96°
2026-05-07 21:26 13.70696 100.79735 2059 ft 189 kts 93°
2026-05-07 21:26 13.70646 100.81116 2553 ft 195 kts 92°
2026-05-07 21:26 13.70607 100.82522 2985 ft 198 kts 92°
2026-05-07 21:26 13.70573 100.83935 3004 ft 196 kts 92°
2026-05-07 21:27 13.70537 100.85327 3014 ft 203 kts 92°
2026-05-07 21:27 13.70493 100.86867 3178 ft 227 kts 92°
2026-05-07 21:27 13.70443 100.88584 3449 ft 253 kts 92°
2026-05-07 21:27 13.70387 100.90464 4012 ft 269 kts 92°
2026-05-07 21:28 13.70309 100.92409 4875 ft 274 kts 96°
2026-05-07 21:28 13.69882 100.94323 5762 ft 277 kts 110°
2026-05-07 21:28 13.69174 100.96178 6662 ft 278 kts 111°
2026-05-07 21:28 13.68461 100.98036 7491 ft 281 kts 111°
2026-05-07 21:29 13.67739 100.99915 8320 ft 284 kts 111°
2026-05-07 21:29 13.67009 101.01819 9131 ft 287 kts 111°
2026-05-07 21:29 13.66276 101.03717 9906 ft 291 kts 113°
2026-05-07 21:29 13.65144 101.05511 10349 ft 307 kts 134°
2026-05-07 21:30 13.63341 101.06762 10610 ft 327 kts 158°
2026-05-07 21:30 13.61078 101.07174 11157 ft 336 kts 181°
2026-05-07 21:30 13.58765 101.06725 11803 ft 341 kts 194°
2026-05-07 21:30 13.56459 101.06095 12472 ft 344 kts 194°
2026-05-07 21:31 13.54133 101.05452 13139 ft 348 kts 194°
2026-05-07 21:31 13.51788 101.04801 13773 ft 351 kts 194°
2026-05-07 21:31 13.49421 101.04145 14347 ft 354 kts 194°
2026-05-07 21:31 13.47033 101.03485 14917 ft 357 kts 194°
2026-05-07 21:32 13.44621 101.02822 15483 ft 360 kts 194°
2026-05-07 21:32 13.42225 101.02167 16037 ft 362 kts 194°
2026-05-07 21:32 13.39778 101.01498 16600 ft 365 kts 193°
2026-05-07 21:32 13.37315 101.00800 17151 ft 369 kts 197°
2026-05-07 21:33 13.34966 100.99711 17700 ft 374 kts 209°
2026-05-07 21:33 13.32869 100.98116 18229 ft 378 kts 221°
2026-05-07 21:33 13.31096 100.96097 18660 ft 383 kts 229°
2026-05-07 21:33 13.29395 100.93987 18819 ft 384 kts 229°
2026-05-07 21:34 13.27678 100.91872 19209 ft 387 kts 229°
2026-05-07 21:34 13.25947 100.89747 19661 ft 389 kts 229°
2026-05-07 21:34 13.24199 100.87604 20114 ft 392 kts 229°
2026-05-07 21:34 13.22438 100.85446 20562 ft 395 kts 229°
2026-05-07 21:35 13.20662 100.83271 21008 ft 398 kts 229°
2026-05-07 21:35 13.18900 100.81114 21440 ft 401 kts 228°
2026-05-07 21:35 13.17098 100.78910 21871 ft 405 kts 228°
2026-05-07 21:35 13.15285 100.76691 22301 ft 408 kts 228°
2026-05-07 21:36 13.13457 100.74452 22729 ft 410 kts 228°
2026-05-07 21:36 13.11597 100.72218 23156 ft 413 kts 224°
2026-05-07 21:36 13.09427 100.70293 23542 ft 413 kts 212°
2026-05-07 21:36 13.06926 100.68861 23884 ft 413 kts 201°
2026-05-07 21:37 13.04197 100.67968 24232 ft 412 kts 189°
2026-05-07 21:37 13.01354 100.67646 24575 ft 412 kts 180°
2026-05-07 21:37 12.98476 100.67574 24917 ft 414 kts 179°
2026-05-07 21:37 12.95587 100.67503 25257 ft 416 kts 180°
2026-05-07 21:38 12.92687 100.67429 25594 ft 418 kts 180°
2026-05-07 21:38 12.89764 100.67353 25931 ft 421 kts 180°
2026-05-07 21:38 12.86829 100.67275 26272 ft 422 kts 180°
2026-05-07 21:38 12.83884 100.67197 26596 ft 424 kts 180°
2026-05-07 21:39 12.80925 100.67121 26927 ft 426 kts 180°
2026-05-07 21:39 12.77951 100.67046 27255 ft 428 kts 180°
2026-05-07 21:39 12.74966 100.66970 27569 ft 430 kts 180°
2026-05-07 21:39 12.71971 100.66893 27894 ft 432 kts 180°
2026-05-07 21:40 12.68948 100.66813 28203 ft 434 kts 180°
2026-05-07 21:40 12.65927 100.66732 28516 ft 436 kts 180°
2026-05-07 21:40 12.62926 100.66651 28824 ft 438 kts 180°
2026-05-07 21:40 12.59875 100.66569 29134 ft 439 kts 180°
2026-05-07 21:41 12.56810 100.66484 29442 ft 441 kts 180°
2026-05-07 21:41 12.53725 100.66402 29699 ft 445 kts 180°
2026-05-07 21:41 12.50619 100.66323 29929 ft 448 kts 180°
2026-05-07 21:41 12.47491 100.66245 30160 ft 451 kts 180°
2026-05-07 21:42 12.44348 100.66166 30393 ft 453 kts 180°
2026-05-07 21:42 12.41191 100.66085 30635 ft 455 kts 180°
2026-05-07 21:42 12.38019 100.66001 30865 ft 457 kts 180°
2026-05-07 21:42 12.35912 100.65945 31017 ft 458 kts 180°
2026-05-07 21:43 12.32714 100.65863 31246 ft 460 kts 180°
2026-05-07 21:43 12.29500 100.65782 31467 ft 462 kts 180°
2026-05-07 21:43 12.25236 100.65672 31888 ft 462 kts 180°
2026-05-07 21:43 12.22025 100.65586 32219 ft 461 kts 180°
2026-05-07 21:44 12.18816 100.65499 32550 ft 461 kts 180°
2026-05-07 21:44 12.16648 100.65442 32747 ft 461 kts 180°
2026-05-07 21:44 12.10356 100.65279 32844 ft 443 kts 180°
2026-05-07 21:45 12.04291 100.65115 32844 ft 432 kts 180°
2026-05-07 21:45 11.98288 100.64965 32850 ft 431 kts 180°
2026-05-07 21:46 11.92295 100.64824 32842 ft 430 kts 180°
2026-05-07 21:46 11.86308 100.64673 32847 ft 430 kts 180°
2026-05-07 21:47 11.80319 100.64516 32851 ft 430 kts 180°
2026-05-07 21:47 11.74327 100.64361 32846 ft 430 kts 180°
2026-05-07 21:48 11.68380 100.64211 32838 ft 430 kts 180°
2026-05-07 21:48 11.62393 100.64059 32843 ft 430 kts 180°
2026-05-07 21:49 11.56406 100.63911 32842 ft 430 kts 180°
2026-05-07 21:49 11.50414 100.63760 32842 ft 430 kts 180°
2026-05-07 21:50 11.44419 100.63605 32844 ft 430 kts 180°
2026-05-07 21:50 11.38428 100.63452 32839 ft 430 kts 180°
2026-05-07 21:51 11.32439 100.63303 32841 ft 430 kts 180°
2026-05-07 21:51 11.26492 100.63154 32838 ft 430 kts 180°
2026-05-07 21:52 11.20506 100.63011 32838 ft 430 kts 180°
2026-05-07 21:52 11.14513 100.62868 32658 ft 430 kts 180°
2026-05-07 21:53 11.11528 100.62791 32407 ft 428 kts 180°
2026-05-07 21:53 11.08554 100.62712 32166 ft 427 kts 180°
2026-05-07 21:53 11.05593 100.62633 31925 ft 425 kts 180°
2026-05-07 21:53 11.02648 100.62558 31688 ft 422 kts 180°
2026-05-07 21:54 10.99716 100.62482 31457 ft 420 kts 180°
2026-05-07 21:54 10.96806 100.62407 31223 ft 416 kts 180°
2026-05-07 21:54 10.93923 100.62334 30848 ft 413 kts 180°
2026-05-07 21:54 10.91050 100.62262 30426 ft 412 kts 180°
2026-05-07 21:55 10.88196 100.62192 30005 ft 410 kts 181°
2026-05-07 21:55 10.85347 100.62123 29545 ft 408 kts 180°
2026-05-07 21:55 10.82523 100.62053 29146 ft 404 kts 180°
2026-05-07 21:55 10.79729 100.61984 28746 ft 400 kts 180°
2026-05-07 21:56 10.76956 100.61915 28361 ft 397 kts 180°
2026-05-07 21:56 10.74201 100.61844 27984 ft 395 kts 180°
2026-05-07 21:56 10.71458 100.61772 27598 ft 392 kts 180°
2026-05-07 21:56 10.68734 100.61701 27209 ft 390 kts 180°
2026-05-07 21:57 10.66068 100.61632 26828 ft 387 kts 180°
2026-05-07 21:57 10.63382 100.61564 26434 ft 385 kts 180°
2026-05-07 21:57 10.60704 100.61498 26038 ft 383 kts 180°
2026-05-07 21:57 10.58049 100.61433 25641 ft 381 kts 180°
2026-05-07 21:58 10.55405 100.61366 25235 ft 379 kts 180°
2026-05-07 21:58 10.52765 100.61299 24821 ft 378 kts 180°
2026-05-07 21:58 10.50141 100.61232 24398 ft 376 kts 180°
2026-05-07 21:58 10.47523 100.61167 23987 ft 375 kts 180°
2026-05-07 21:59 10.44921 100.61103 23551 ft 374 kts 180°
2026-05-07 21:59 10.42322 100.61041 23080 ft 372 kts 180°
2026-05-07 21:59 10.39745 100.60979 22658 ft 368 kts 180°
2026-05-07 21:59 10.37196 100.60916 22230 ft 365 kts 180°
2026-05-07 22:00 10.34670 100.60855 21812 ft 361 kts 180°
2026-05-07 22:00 10.32169 100.60793 21399 ft 358 kts 180°
2026-05-07 22:00 10.29692 100.60733 20992 ft 354 kts 180°
2026-05-07 22:00 10.27270 100.60674 20602 ft 352 kts 180°
2026-05-07 22:01 10.24832 100.60614 20167 ft 349 kts 180°
2026-05-07 22:01 10.22414 100.60554 19775 ft 347 kts 180°
2026-05-07 22:01 10.20008 100.60495 19375 ft 344 kts 180°
2026-05-07 22:01 10.17617 100.60438 18972 ft 342 kts 180°
2026-05-07 22:02 10.15242 100.60381 18578 ft 340 kts 180°
2026-05-07 22:02 10.12880 100.60324 18176 ft 339 kts 180°
2026-05-07 22:02 10.10527 100.60268 17738 ft 337 kts 180°
2026-05-07 22:02 10.08193 100.60213 17346 ft 334 kts 180°
2026-05-07 22:03 10.05879 100.60157 16954 ft 331 kts 180°
2026-05-07 22:03 10.03584 100.60101 16567 ft 328 kts 180°
2026-05-07 22:03 10.01336 100.60045 16189 ft 326 kts 180°
2026-05-07 22:03 9.99075 100.59989 15810 ft 324 kts 180°
2026-05-07 22:04 9.96830 100.59933 15434 ft 322 kts 180°
2026-05-07 22:04 9.94594 100.59876 15056 ft 320 kts 180°
2026-05-07 22:04 9.92378 100.59817 14687 ft 318 kts 180°
2026-05-07 22:04 9.90167 100.59762 14313 ft 317 kts 180°
2026-05-07 22:05 9.87964 100.59708 13943 ft 316 kts 180°
2026-05-07 22:05 9.85769 100.59656 13563 ft 315 kts 180°
2026-05-07 22:05 9.83614 100.59605 13170 ft 313 kts 180°
2026-05-07 22:05 9.81464 100.59276 12796 ft 313 kts 195°
2026-05-07 22:06 9.79477 100.58387 12424 ft 313 kts 210°
2026-05-07 22:06 9.77788 100.57002 12076 ft 312 kts 224°
2026-05-07 22:06 9.76292 100.55437 11814 ft 307 kts 224°
2026-05-07 22:06 9.74797 100.53891 11447 ft 306 kts 224°
2026-05-07 22:07 9.73303 100.52353 11085 ft 306 kts 224°
2026-05-07 22:07 9.71944 100.50693 10705 ft 307 kts 237°
2026-05-07 22:07 9.71101 100.48705 10328 ft 309 kts 255°
2026-05-07 22:07 9.70869 100.46550 9955 ft 309 kts 273°
2026-05-07 22:08 9.71166 100.44399 9566 ft 309 kts 280°
2026-05-07 22:08 9.71521 100.42255 9169 ft 308 kts 279°
2026-05-07 22:08 9.71868 100.40115 8792 ft 307 kts 279°
2026-05-07 22:08 9.72211 100.37983 8417 ft 306 kts 279°
2026-05-07 22:09 9.72552 100.35859 8043 ft 305 kts 279°
2026-05-07 22:09 9.72886 100.33772 7688 ft 303 kts 279°
2026-05-07 22:09 9.73221 100.31672 7333 ft 302 kts 279°
2026-05-07 22:09 9.73497 100.29579 7009 ft 299 kts 272°
2026-05-07 22:10 9.73507 100.27470 6662 ft 297 kts 269°
2026-05-07 22:10 9.73503 100.25378 6333 ft 295 kts 269°
2026-05-07 22:10 9.73501 100.23307 5984 ft 293 kts 269°
2026-05-07 22:10 9.73500 100.21239 5617 ft 291 kts 269°
2026-05-07 22:11 9.73500 100.19191 5160 ft 290 kts 269°
2026-05-07 22:11 9.73499 100.17146 4534 ft 294 kts 269°
2026-05-07 22:11 9.73497 100.15096 3961 ft 291 kts 269°
2026-05-07 22:11 9.73490 100.13101 3762 ft 273 kts 267°
2026-05-07 22:12 9.73059 100.11324 3642 ft 248 kts 240°
2026-05-07 22:12 9.72031 100.10057 3412 ft 224 kts 215°
2026-05-07 22:12 9.70702 100.09332 3107 ft 211 kts 202°
2026-05-07 22:12 9.69397 100.08735 2848 ft 200 kts 202°
2026-05-07 22:13 9.68177 100.08173 2599 ft 187 kts 202°
2026-05-07 22:13 9.67033 100.07648 2357 ft 173 kts 202°
2026-05-07 22:13 9.65993 100.07169 2148 ft 156 kts 202°
2026-05-07 22:13 9.64965 100.06696 1955 ft 166 kts 202°
2026-05-07 22:14 9.63911 100.06212 1746 ft 165 kts 202°
2026-05-07 22:14 9.62921 100.05760 1541 ft 147 kts 202°
2026-05-07 22:14 9.61967 100.05558 1409 ft 140 kts 181°
2026-05-07 22:14 9.60975 100.05607 991 ft 139 kts 173°
2026-05-07 22:15 9.60028 100.05717 955 ft 137 kts 172°
2026-05-07 22:15 9.59083 100.05819 815 ft 136 kts 173°
2026-05-07 22:15 9.58137 100.05915 607 ft 137 kts 173°
2026-05-07 22:15 9.57177 100.06014 412 ft 142 kts 174°
2026-05-07 22:16 9.56188 100.06113 235 ft 143 kts 175°
2026-05-07 22:16 9.55188 100.06205 67 ft 138 kts 175°
2026-05-07 22:16 9.54351 100.06290 51 ft 93 kts 175°
2026-05-07 22:16 9.53987 100.06320 53 ft 29 kts 171°
2026-05-07 22:17 9.53863 100.06342 51 ft 8 kts 157°
2026-05-07 22:17 9.53847 100.06324 53 ft 4 kts 307°
2026-05-07 22:17 9.53879 100.06312 50 ft 6 kts 354°
2026-05-07 22:17 9.53931 100.06315 50 ft 9 kts 11°
2026-05-07 22:18 9.54008 100.06321 50 ft 13 kts 356°
2026-05-07 22:18 9.54251 100.06298 53 ft 22 kts 354°
2026-05-07 22:18 9.54420 100.06281 53 ft 27 kts 355°
2026-05-07 22:19 9.54622 100.06263 51 ft 32 kts 355°
2026-05-07 22:19 9.54857 100.06239 53 ft 34 kts 355°
2026-05-07 22:19 9.54975 100.06228 50 ft 12 kts 354°
2026-05-07 22:19 9.55008 100.06262 53 ft 7 kts 90°
2026-05-07 22:20 9.55036 100.06307 53 ft 9 kts
2026-05-07 22:20 9.55116 100.06301 50 ft 13 kts 355°
2026-05-07 22:20 9.55130 100.06299 53 ft 0 kts 353°
2026-05-07 22:20 9.55133 100.06299 53 ft 2 kts 353°
2026-05-07 22:21 9.55156 100.06302 53 ft 5 kts 31°
2026-05-07 22:21 9.55161 100.06320 53 ft 2 kts 87°
2026-05-07 22:21 9.55162 100.06332 53 ft 1 kts 88°
2026-05-07 22:21 9.55162 100.06333 53 ft 0 kts 87°
2026-05-07 22:22 9.55162 100.06335 53 ft 1 kts 86°
2026-05-07 22:22 9.55162 100.06337 53 ft 0 kts 86°